Location: Berbisdorf
(50.7638°N, 12.9442°E)
Time: 04:24:11
(UTC+00:00)

GEOS 3 Rocket - Pass Details

Date: 10 October 2020
Orbit: 770 x 849 km, 115.0° (Epoch: 21 October)

Event Time Altitude Azimuth Distance (km) Brightness Sun altitude
Rises 17:35:34 0° 185° (S) 3,338 6.8 -11.8°
Reaches altitude 10° 17:38:36 10° 204° (SSW) 2,425 6.4 -12.3°
Maximum altitude 17:42:08 18° 247° (WSW) 1,942 6.5 -12.9°
Drops below altitude 10° 17:45:42 10° 289° (WNW) 2,464 7.5 -13.4°
Sets 17:48:50 0° 308° (NW) 3,413 7.9 -13.9°
